Coronas F rocket - Orbit

View from above orbital plane
View from above orbital plane
View from above satellite
View from above satellite

Ground track
Ground track

The orbit data is extracted from the following two-line orbital elements,

1 26874U 01032B   13144.84991886  .00009228  00000-0  19651-3 0  3854
2 26874 082.4770 027.3174 0019266 031.6420 328.5982 15.44562589661235
Epoch (UTC): 24 May 2013 20:23:52
Eccentricity: 0.0019266
inclination: 82.4770°
perigee height: 419 km
apogee height: 446 km
right ascension of ascending node: 27.3174°
argument of perigee: 31.6420°
revolutions per day: 15.44562589
mean anomaly at epoch: 328.5982°
orbit number at epoch: 66123

The dashed part of the orbit path shows where the satellite is in the earth's shadow,  

Developed and maintained by Chris Peat, Heavens-Above GmbH. Please read the updated FAQ before sending e-mail. Imprint. DLR